SL-4 R/B

基本信息
目录编号:
68753
目录名称:
SL-4 R/B
国际标识:
2026-083A
轨道中心:
EARTH
物体状态:
在轨
发射日期:
2026-04-16 UTC
国别:
俄罗斯(独联体) (CIS)
轨道信息
数据来源: 国际轨道数据
星历时间: 2026-09-11T12:02:16+0800
半长轴: 6874.237km
偏心率: 0.0061129
轨道倾角: 98.284°
近地点辐角: 294.262°
升交点赤经: 54.247°
平近点角: 65.224°
近地点: 454.078km
远地点: 538.122km
周期: 94.536分钟
每日圈数: 15.23232
详细信息
发射场:
PKMTR
轨道高度:
LEO
数据来源:
AOE Integration Group
参考系:
TEME
时间系统:
UTC
历元类型:
SGP4
2D轨道图
3D轨道图
轨道高度分析图
轨道倾角分析图
轨道综合分析图
查看轨道综合分析图